Billings, MT

5:45 PM MST on February 13, 2016 (GMT -0700)
Billings Logan International

Weather History for KBIL - January, 2014

Change the Weather History Date:

Saturday, January 18, 2014

  Actual Average Record
Temperature  
Mean Temperature 38 °F 27 °F  
Max Temperature 45 °F 37 °F 62 °F (2009)
Min Temperature 30 °F 18 °F -25 °F (1943)
Degree Days  
Heating Degree Days 27 38  
Month to date heating degree days 600 691  
Since 1 July heating degree days 3525 3512  
Cooling Degree Days 0 0  
Month to date cooling degree days 0 0  
Year to date cooling degree days 0 0  
Moisture  
Dew Point 22 °F    
Average Humidity 55    
Maximum Humidity 69    
Minimum Humidity 40    
Precipitation  
Precipitation 0.00 in 0.02 in 0.44 in (1972)
Month to date precipitation 0.59 0.28  
Year to date precipitation 0.59 0.28  
Snow  
Snow 0.00 in 0.30 in 9.60 in (2012)
Month to date snowfall 9.6 5.1  
Since 1 July snowfall 44.6 25.0  
Snow Depth 0.00 in    
Sea Level Pressure  
Sea Level Pressure 30.15 in    
Wind  
Wind Speed 19 mph (WSW)    
Max Wind Speed 31 mph    
Max Gust Speed 38 mph    
Visibility 10 miles    
Events      
T = Trace of Precipitation, MM = Missing Value Source: NWS Daily Summary

Daily Weather History Graph

Daily Weather History Graph

Search for Another Location

Airport or City:

Trip Planner

Search our weather history database for the weather conditions in past years. The results will help you decide how hot, cold, wet, or windy it might be!

Date:

Astronomy

Jan. 18, 2014 Rise Set
Actual Time 7:49 AM MST 5:00 PM MST
Civil Twilight 7:16 AM MST 5:33 PM MST
Nautical Twilight 6:39 AM MST 6:10 PM MST
Astronomical Twilight 6:04 AM MST 6:45 PM MST
Moon 7:56 PM MST (1/18) 8:41 AM MST (1/18)
Length of Visible Light 10h 16m
Length of Day
9h 10m
Waning Gibbous, 94% of the Moon is Illuminated
Jan 18
Waning Gibbous
Jan 23
Last Quarter
Jan 30
New
Feb 6
First Quarter
Feb 14
Full

Hourly Weather History & Observations

Time (MST) Temp. Windchill Dew Point Humidity Pressure Visibility Wind Dir Wind Speed Gust Speed Precip Events Conditions
12:53 AM 43.0 °F 34.8 °F 21.9 °F 43% 30.21 in 10.0 mi WNW 18.4 mph - N/A   Clear
1:53 AM 43.0 °F 34.8 °F 21.9 °F 43% 30.20 in 10.0 mi WNW 18.4 mph - N/A   Clear
2:53 AM 37.0 °F 29.3 °F 21.9 °F 54% 30.23 in 10.0 mi WSW 11.5 mph - N/A   Clear
3:53 AM 37.0 °F 28.9 °F 21.0 °F 52% 30.24 in 10.0 mi WSW 12.7 mph - N/A   Clear
4:53 AM 33.1 °F 24.4 °F 21.9 °F 64% 30.26 in 10.0 mi SW 11.5 mph - N/A   Clear
5:53 AM 33.1 °F 23.4 °F 21.9 °F 64% 30.27 in 10.0 mi SW 13.8 mph - N/A   Clear
6:53 AM 30.0 °F 20.0 °F 21.0 °F 69% 30.27 in 10.0 mi SW 12.7 mph - N/A   Partly Cloudy
7:53 AM 32.0 °F 20.5 °F 19.9 °F 61% 30.27 in 10.0 mi SW 18.4 mph - N/A   Scattered Clouds
8:53 AM 32.0 °F 20.1 °F 19.0 °F 59% 30.27 in 10.0 mi SW 19.6 mph - N/A   Scattered Clouds
9:53 AM 33.1 °F 21.9 °F 19.0 °F 56% 30.27 in 10.0 mi WSW 18.4 mph - N/A   Partly Cloudy
10:53 AM 37.0 °F 28.1 °F 21.0 °F 52% 30.25 in 10.0 mi SW 15.0 mph - N/A   Partly Cloudy
11:53 AM 39.9 °F 31.8 °F 23.0 °F 51% 30.19 in 10.0 mi SW 15.0 mph - N/A   Partly Cloudy
12:53 PM 42.1 °F 32.6 °F 23.0 °F 47% 30.13 in 10.0 mi WSW 23.0 mph - N/A   Partly Cloudy
1:53 PM 42.1 °F 31.7 °F 23.0 °F 47% 30.08 in 10.0 mi WSW 27.6 mph 32.2 mph N/A   Partly Cloudy
2:53 PM 44.1 °F 35.7 °F 23.0 °F 43% 30.08 in 10.0 mi WSW 20.7 mph 29.9 mph N/A   Partly Cloudy
3:53 PM 44.1 °F 34.8 °F 21.9 °F 42% 30.06 in 10.0 mi WSW 25.3 mph 33.4 mph N/A   Partly Cloudy
4:53 PM 42.1 °F 32.6 °F 21.9 °F 45% 30.07 in 10.0 mi WSW 23.0 mph 32.2 mph N/A   Partly Cloudy
5:53 PM 41.0 °F 31.1 °F 21.0 °F 45% 30.06 in 10.0 mi WSW 23.0 mph - N/A   Partly Cloudy
6:53 PM 41.0 °F 31.4 °F 21.0 °F 45% 30.07 in 10.0 mi WSW 21.9 mph 29.9 mph N/A   Clear
7:53 PM 39.9 °F 30.2 °F 21.0 °F 47% 30.05 in 10.0 mi SW 20.7 mph - N/A   Clear
8:53 PM 39.9 °F 29.5 °F 21.9 °F 49% 30.03 in 10.0 mi WSW 24.2 mph - N/A   Partly Cloudy
9:53 PM 39.0 °F 29.6 °F 21.9 °F 50% 30.03 in 10.0 mi SW 18.4 mph - N/A   Mostly Cloudy
10:53 PM 37.9 °F 27.9 °F 21.9 °F 53% 30.00 in 10.0 mi SW 19.6 mph - N/A   Mostly Cloudy
11:53 PM 37.0 °F 27.0 °F 21.9 °F 54% 29.99 in 10.0 mi WSW 18.4 mph - N/A   Scattered Clouds